Skip Page Navigation
NASA JPL Caltech
NASA Logo - Jet Propulsion Laboratory + View the NASA Portal
+ Near-Earth Object (NEO) Program
Search JPL
JPL Home Earth Solar System Stars & Galaxies Technology
JPL Solar System Dynamics
BODIES ORBITS EPHEMERIDES TOOLS PHYSICAL DATA DISCOVERY FAQ SITE MAP
JPL Small-Body Database Browser
Search: [ help ]  
(1991 GO)
Classification: Apollo [NEO, PHA]          SPK-ID: 3002856
Ephemeris | Orbit Diagram | Orbital Elements | Physical Parameters | Close-Approach Data ]

[ hide orbit diagram ]
Orbit Diagram
Note: Make sure you have Java enabled on your browser to see the applet. This applet is provided as a 3D orbit visualization tool. The applet was implemented using 2-body methods, and hence should not be used for determining accurate long-term trajectories (over several years or decades) or planetary encounter circumstances. For accurate long-term ephemerides, please instead use our Horizons system.
Orbit Viewer

Additional Notes: the orbits shown in the applet are color coded. The planets are white lines, and the asteroid/comet is a blue line. The bright white line indicates the portion of the orbit that is above the ecliptic plane, and the darker portion is below the ecliptic plane. Likewise for the asteroid/comet orbit, the light blue indicates the portion above the ecliptic plane, and the dark blue the portion below the ecliptic plane.

Orbit Viewer applet originally written and kindly provided by Osamu Ajiki (AstroArts), and further modified by Ron Baalke (JPL).


Orbital Elements at Epoch 2456400.5 (2013-Apr-18.0) TDB
Reference: JPL 20 (heliocentric ecliptic J2000)
 Element Value Uncertainty (1-sigma)   Units 
e .6543404845797265 3.8483e-07  
a 1.926006387947878 7.4547e-09 AU
q .6657424347544147 7.4077e-07 AU
i 9.555455048627506 7.1181e-05 deg
node 24.19841785486547 2.9894e-05 deg
peri 89.51735699321756 8.7383e-05 deg
M 106.0684152776505 7.6408e-06 deg
tp 2456112.847209656252
(2012-Jul-04.34720966)
2.0647e-05 JED
period 976.3038719177414
2.67
5.6683e-06
1.552e-08
d
yr
n .3687376546943899 2.1408e-09 deg/d
Q 3.186270341141341 1.2333e-08 AU
  Orbit Determination Parameters
   # obs. used (total)      83  
   data-arc span      6703 days (18.35 yr)  
   first obs. used      1991-04-11  
   last obs. used      2009-08-17  
   planetary ephem.      DE405  
   SB-pert. ephem.      SB405-CPV-2  
   condition code      0  
   fit RMS      .71177  
   data source      ORB  
   producer      Otto Matic  
   solution date      2011-Sep-14 19:31:50  

Additional Information
 Earth MOID = .0249348 AU 
 T_jup = 3.609 
[ show covariance matrix ]

Ephemeris | Orbit Diagram | Orbital Elements | Physical Parameters | Close-Approach Data ]

Physical Parameter Table
Parameter Symbol Value Units Sigma Reference Notes
absolute magnitude H 19.83 mag 1.0346 20 autocmod 2.5a

[ show close-approach data ]
Alternate Designations
 1991 GO = 1999 HC 
Ephemeris | Orbit Diagram | Orbital Elements | Physical Parameters | Close-Approach Data ]
ABOUT SSD CREDITS/AWARDS PRIVACY/COPYRIGHT GLOSSARY LINKS
FirstGov 2013-May-19 00:09 UT
(server date/time)  
NASA Home Page
Site Manager:   Donald K. Yeomans
Webmaster  Alan B. Chamberlin